GFSMW_prec_radar_177.txt.gz
Reflectivity
-20 -20 -20 -20 -20 -20 -20 -20 -20 -20 -20 19 34 26 17 29 -19 -20 -20 -20 -20 -20 -20 -20 -20 -20 -20 -20 -20 -20 -20 -20 -20 -20 -20 -20 -20 -20 -20 -20 -20 -20 -20
-20 -20 -20 -20 -20 -20 -20 14 -20 -20 -19 -20 26 44 21 14 -13 -20 -20 -20 -20 -20 -20 -20 -20 -20 -20 -20 -20 -20 -20 -20 -20 -20 -20 -20 -20 -20 -20 -20 -20 -20 -20
-20 -20 -20 -20 -20 -20 21 -20 -20 -19 2 -10 34 37 25 36 2 -20 -20 -20 -20 -20 -20 -20 -20 -20 -20 -20 -20 -20 -20 -20 -20 -20 -20 -20 -20 -20 -20 -20 -20 -20 -20
-20 -20 -20 -20 -20 -20 0 -20 2 -20 -20 -6 -0 33 24 25 3 -16 -20 -20 -20 -20 -20 -20 -20 -20 -20 -20 -20 -20 -20 -20 -20 -20 -20 -20 -20 -20 -20 -20 -20 -20 -20
-20 -20 -20 -20 -20 -20 -8 -1 -20 -20 6 -16 19 14 41 39 -11 -5 -20 -20 -20 -20 -20 -20 -20 -20 -20 -20 -20 -20 -20 -20 -20 -20 -20 -20 -20 -20 -20 -20 -20 -20 -20
-20 -20 -20 -20 -20 -3 -3 10 2 -18 27 -2 33 24 31 42 24 -18 -16 -20 -20 -20 -20 -20 -20 -20 -20 -20 -20 -20 -20 -20 -20 -20 -20 -20 -20 -20 -20 -20 -20 -20 -20
-20 -20 -20 -20 -20 -20 -8 17 -2 12 25 24 37 32 14 38 18 9 -3 -18 -16 -20 -20 -20 -20 -20 -20 -20 -20 -20 -20 -20 -20 -20 -17 -12 -20 -20 -20 -20 -20 -20 -20
-20 -20 -20 -20 -15 -20 -2 16 12 18 24 31 24 25 24 26 6 -16 -20 -20 -20 -20 -20 -20 -20 -20 -20 -20 -20 -20 -20 -20 -20 -20 -15 -7 -20 -20 -20 -20 -20 -20 -20
-20 -20 -20 -20 -20 -20 4 10 15 20 28 37 14 23 17 24 22 1 -15 -15 -20 -20 -20 -20 -20 -20 -20 -20 -20 -9 -1 -16 -20 -20 -15 -6 -20 -20 -20 -20 -20 -20 -20
-20 4 -14 -14 -20 -16 18 1 24 25 29 22 34 20 27 18 7 0 -1 -7 -3 -20 -20 -20 -20 -20 -20 -20 -20 -19 -0 2 -13 -20 -10 -20 -20 -20 -20 -20 -20 -20 -20
-16 0 -8 -13 12 20 -8 12 29 27 31 32 24 29 24 -1 -16 -20 -20 -7 -12 -20 -20 -20 -20 -20 -20 -19 -8 -7 -14 -20 -19 -6 -2 -16 -20 -20 -20 -20 -20 -20 -20
27 4 -14 12 18 12 18 26 27 23 39 32 20 32 28 7 -5 -20 -20 -8 -18 -20 -20 -20 -20 -20 -20 -20 -20 -20 -20 -16 -15 -20 -20 -20 -20 -20 -20 -20 -20 -20 -20
12 -2 14 14 15 12 4 23 32 35 28 -12 5 28 32 19 4 29 20 -18 -20 -20 -20 -20 -20 -20 -20 -20 -20 -20 -20 -20 -20 -20 -20 -20 -20 -20 -20 -20 -20 -20 -20
-3 6 13 17 21 14 3 15 31 39 31 18 11 27 28 32 28 19 23 10 -4 -20 -20 -13 -13 2 7 -0 -20 -20 -20 -20 -20 -20 -20 -20 -20 -20 -20 -20 -20 -20 -20
6 6 15 7 -13 -7 23 4 23 39 37 20 27 32 33 22 17 7 3 6 8 6 4 9 -17 -20 -20 -20 -20 -20 -20 -20 -20 -20 -20 -20 -20 -20 -20 -20 -20 -20 -20
14 9 5 -1 -6 -20 4 14 19 25 36 35 27 35 -3 -18 -17 -20 -20 2 0 10 -1 -20 -20 -20 -20 -20 -20 -20 -20 -20 -20 -20 -20 -20 -20 -20 -20 -20 -20 -20 -20
4 -19 -3 -13 -11 12 11 9 14 10 23 24 34 19 -16 -10 -20 -13 4 -13 -20 -18 -4 -19 -20 -13 -14 -20 -20 -20 -20 -20 -20 -20 -20 -20 -20 -20 -20 -20 -20 -20 -20
-2 21 28 27 21 22 23 15 12 25 25 29 6 -18 -20 -20 -20 -20 -20 -20 -10 -5 -20 -20 -20 -17 -20 -20 -20 -20 -20 -20 -20 -20 -20 -20 -20 -20 -20 -20 -20 -20 -20
26 13 17 28 30 30 32 29 26 21 35 22 -4 -9 -5 11 -5 -20 -20 -20 -19 -20 -20 -20 -20 -20 -20 -20 -20 -20 -20 -20 -20 -20 -20 -20 -20 -20 -20 -20 -20 -20 -20
12 24 29 32 32 19 22 29 26 23 28 26 20 -18 -10 -5 -8 -5 -7 -11 -20 -11 -5 -16 -20 -20 -20 -20 -20 -20 -20 -20 -20 -20 -20 -20 -20 -20 -17 -15 -20 -20 -20
30 24 24 20 24 21 18 27 24 23 27 12 7 6 8 2 -10 -2 4 4 -1 0 -5 -14 -20 -20 -20 -20 -20 -20 -20 -20 -20 -20 -20 -20 -20 -20 -6 -16 -20 -20 -16
21 21 22 26 28 27 26 24 17 11 3 3 3 9 -6 -13 -17 -12 -7 -2 -7 -18 -20 -20 -20 -20 -20 -20 -20 -20 -20 -20 -20 -20 -20 -20 -20 -20 -20 -20 -20 -20 -20
37 25 1 10 24 30 24 18 1 2 -1 -5 -3 -8 -7 -9 -12 -20 -20 -20 -20 -20 -20 -20 -20 -20 -20 -20 -20 -20 -20 -20 -20 -20 -20 -20 -20 -20 -20 -20 -20 -20 -20
-20 -13 11 2 -20 -19 -7 10 3 9 0 -12 -2 1 2 -2 -13 -20 -20 -20 -20 -20 -20 -20 -20 -20 -20 -20 -20 -20 -20 -20 -20 -20 -20 -20 -20 -20 -20 -20 -20 -20 -20
-20 -20 -20 -20 -20 -20 -20 -20 -20 -20 -20 -20 -20 -20 -20 -20 -20 -20 -20 -20 -20 -20 -20 -20 -20 -20 -20 -20 -20 -20 -20 -20 -20 -20 -20 -20 -20 -20 -20 -20 -20 -20 -20
-20 -20 -20 -20 -20 -20 -20 -20 -20 -20 -20 -20 -20 -20 -20 -20 -20 -20 -20 -20 -20 -20 -20 -20 -20 -20 -20 -20 -20 -20 -20 -20 -20 -20 -20 -20 -20 -20 -20 -20 -20 -20 -10

GFSMW_prec_radar_180.txt.gz
Reflectivity
-20 -20 -20 -20 -20 -20 -20 -20 -20 -20 -20 -20 -20 -20 9 31 43 36 18 -19 -20 -20 -20 -20 -20 -20 -20 -20 -20 -20 -20 -20 -20 -20 -20 -20 -20 -20 -20 -20 -20 -20 -20
-20 -20 -20 -20 -20 -20 -20 -20 -20 -20 -20 -20 -20 -20 -20 12 38 35 39 -20 1 -18 -16 -20 -20 -20 -20 -20 -20 -20 -20 -20 -20 -20 -20 -20 -20 -20 -20 -20 -20 -20 -20
-20 -20 -20 -20 -20 -20 -20 -20 -5 -20 -20 -20 -20 -20 7 -6 3 32 42 21 10 1 3 -11 -20 -20 -20 -20 -20 -20 -20 -20 -20 -20 -20 -20 -20 -20 -20 -20 -20 -20 -20
-20 -20 -20 -20 -20 -20 -20 -20 -18 -0 8 -20 -20 -20 -18 -20 5 20 38 22 5 6 6 -14 -20 -20 -20 -20 -20 -20 -20 -20 -20 -20 -20 -20 -20 -20 -20 -20 -20 -20 -20
-20 -20 -20 -20 -20 -20 -20 -20 -20 -20 -10 14 -20 -19 -20 -20 8 42 28 14 9 -2 -6 -20 -20 -20 -20 -20 -20 -20 -20 -20 -20 -20 -20 -20 -20 -20 -20 -20 -20 -20 -20
-20 -20 -20 -20 -20 -20 -20 -20 -20 -4 -20 8 3 1 -7 -4 26 34 35 11 12 -17 -20 -19 -20 -20 -20 -20 -20 -20 -20 -20 -20 -20 -20 -20 -20 -20 -20 -20 -20 -20 -20
-20 -20 -20 -13 -20 -20 -20 -20 -20 3 -1 12 16 -5 5 26 24 36 25 28 13 -20 -20 -12 -14 -20 -20 -20 -20 -20 -20 -20 -20 -20 -20 -20 -20 -20 -20 -20 -20 -20 -20
-20 -20 -20 -20 -20 -20 -20 -20 -18 -2 10 18 21 12 16 37 13 32 32 16 -1 -13 -13 -18 -20 -20 -20 -20 -20 -20 -20 -20 -20 -11 6 0 -12 -9 -20 -20 -14 -20 -20
-20 -18 -20 -20 -20 -18 1 -20 -1 15 9 21 20 15 27 27 34 28 28 27 17 3 1 -20 -20 -20 -20 -20 -20 -20 -20 -20 -20 -20 -20 -20 -20 -20 -20 -20 -20 -20 -20
-1 3 -20 -2 18 -16 -14 -5 4 25 25 11 21 21 29 23 37 32 17 31 22 16 -9 -20 -20 -20 -20 -20 -20 -20 -20 -20 -20 -19 -2 -13 -20 -20 -20 -20 -20 -20 -20
12 1 -0 22 25 2 -20 21 19 16 19 28 20 23 26 9 32 25 23 2 -8 -14 -20 -20 -20 -19 -0 -20 -20 -20 -20 -20 -20 -20 -20 -14 -20 -20 -20 -20 -20 -20 -20
21 33 26 24 -17 14 -3 4 31 23 24 27 20 40 23 27 26 22 8 -8 -5 4 12 -11 -11 1 -19 -20 -20 -20 -20 -20 -20 -20 -19 -20 -20 -20 -20 -20 -20 -20 -20
27 3 14 19 12 -9 13 22 25 20 25 19 31 34 12 25 24 25 1 1 -3 -19 -20 -20 -20 -3 -20 -20 -20 -20 -20 -20 -20 -20 -20 -14 -20 -20 -20 -20 -20 -20 -20
13 25 12 -2 13 10 12 19 17 26 19 32 40 32 28 19 19 15 9 11 8 -20 -20 -20 -20 -20 -20 -20 -20 -20 -20 -20 -20 -20 -20 -20 -20 -20 -20 -20 -20 -20 -20
11 18 10 19 19 18 11 3 25 34 33 29 40 27 12 12 5 3 8 20 15 -16 -20 -20 -20 -20 -18 -2 -18 -20 -20 -20 -20 -20 -20 -20 -20 -20 -20 -20 -20 -20 -20
5 12 22 18 14 20 18 6 7 31 31 38 32 34 19 16 15 13 11 13 7 11 -2 -1 15 0 -15 6 6 3 -12 -20 -20 -20 -20 -20 -20 -20 -20 -20 -20 -20 -20
-16 13 17 28 15 13 8 17 10 24 33 32 28 34 34 33 29 12 3 -8 -19 -20 -9 3 2 -18 -16 -6 -19 -19 -20 -20 -20 -20 -20 -20 -20 -20 -20 -20 -20 -20 -20
10 38 34 22 13 27 33 12 20 20 12 9 31 32 21 9 -10 -20 -20 -20 3 -2 -1 -13 -16 -11 -20 -20 -20 -20 -20 -20 -20 -20 -20 -20 -20 -20 -20 -20 -20 -20 -20
36 32 28 29 26 28 19 14 10 15 15 17 30 26 20 3 -10 -20 -20 -20 -20 -20 -20 -19 -11 -16 -20 -20 -20 -20 -20 -20 -20 -20 -20 -20 -20 -20 -20 -20 -20 -20 -20
32 30 27 18 19 27 29 31 26 27 21 19 20 21 -19 -19 -19 -20 -20 -17 -14 -11 -2 -20 -20 -20 -20 -20 -20 -20 -20 -20 -20 -20 -20 -20 -20 -20 -20 -20 -20 -20 -20
21 30 33 34 30 30 29 31 30 30 29 29 30 24 16 10 -3 -20 -20 -20 -17 -20 -20 -20 -20 -20 -20 -20 -20 -20 -20 -20 -20 -20 -20 -20 -20 -20 -20 -20 -20 -20 -17
-2 16 24 23 10 19 28 28 27 27 25 24 16 13 1 -7 -18 -17 -13 -18 -20 -20 -20 -18 -18 -20 -20 -20 -20 -20 -20 -20 -20 -20 -20 -20 -20 -20 -20 -20 -20 -20 -20
-8 13 2 -0 21 25 28 28 28 29 28 24 14 5 -6 -8 -20 -20 -20 -20 -20 -20 -20 -20 -20 -20 -20 -20 -20 -20 -20 -20 -20 -20 -20 -20 -20 -20 -20 -20 -20 -20 -20
6 -2 10 15 15 12 12 3 4 8 4 -11 -14 -11 -19 -20 -20 -20 -20 -19 -19 -20 -20 -20 -20 -20 -20 -20 -20 -20 -20 -20 -20 -20 -20 -20 -20 -20 -20 -20 -20 -20 -20
-13 12 13 13 -17 -10 -2 -11 -19 -20 -20 -20 -20 -20 -20 -20 -18 -12 -15 -20 -20 -20 -20 -20 -20 -20 -20 -20 -20 -20 -20 -20 -20 -20 -20 -20 -20 -20 -20 -20 -20 -20 -20
-20 -15 -12 -20 -20 -20 -20 -20 -20 -12 -8 -9 -19 -18 -20 -20 -20 -20 -20 -20 -20 -20 -20 -20 -20 -20 -20 -20 -20 -20 -20 -20 -20 -20 -20 -20 -20 -20 -20 -20 -20 -20 -20

GFSMW_prec_radar_186.txt.gz
Reflectivity
-20 -20 -20 -20 -20 -20 -20 -20 -20 -20 -20 -20 -20 -20 -19 -20 -20 -20 -13 -20 5 32 38 31 24 -4 -20 -20 -20 -20 -20 -20 -20 -20 -20 -20 -20 -20 -20 -20 -20 -20 -20
-20 -20 -20 -20 -20 -20 -20 -20 -20 -20 -20 -20 -20 -20 -20 -20 -20 -20 -20 -20 -7 30 35 35 27 5 5 -20 -20 -20 -20 -20 -20 -20 -20 -20 -20 -20 -20 -20 -20 -20 -20
-20 -20 -20 -20 -20 -20 -20 -20 -20 -20 -20 -20 -20 -20 -20 -14 -20 -20 -20 -15 -17 15 22 30 33 -6 3 -12 -20 -20 -20 -20 -20 -20 -20 -20 -20 -20 -20 -20 -20 -20 -20
-20 -20 -20 -20 -20 -20 -20 -20 -20 -20 -20 -20 -20 -20 -20 -1 -20 -20 -20 -18 -19 -18 0 13 33 28 11 -15 -8 -13 -20 -18 -18 -20 -20 -20 -20 -20 -20 -20 -20 -20 -16
-20 -20 -20 -20 -20 -20 -20 -20 -20 -20 -20 -20 -20 -20 -20 -20 -20 -20 -20 -20 -20 -20 -19 8 15 31 17 10 6 -15 -20 -20 -17 -20 -20 -20 -20 -20 -20 -20 -14 -10 1
-20 -20 -20 -20 -20 -20 -20 -20 -20 -20 -7 -20 -20 -20 -20 -9 -20 -20 -20 -20 -20 -20 -6 -17 19 29 7 -1 1 -18 -18 -20 -11 -20 -20 -20 -20 -20 -15 -20 -19 -20 -20
-20 -20 -20 -20 -20 -20 -20 -20 -20 -20 4 9 -20 -20 -20 -15 -20 -20 -20 -18 -20 -0 2 15 15 9 13 8 1 -14 -12 -4 -16 -20 -20 -20 -18 -18 -9 -20 -6 -20 -20
-20 -20 -20 -20 -20 -20 -20 -20 -20 -9 9 22 -3 7 -20 12 3 -20 -20 -20 -20 15 23 21 -4 11 18 9 6 3 8 -12 -20 -20 -19 -18 -20 -20 -20 -20 -20 -20 -20
-20 -20 -20 -20 -20 -20 -20 -20 -5 -7 14 8 13 15 -20 -20 -20 -20 -18 -20 -20 14 20 26 8 11 25 30 22 15 3 -12 -20 -20 -20 -19 -20 -20 -20 -20 -20 -20 -20
-20 -20 -15 -19 9 -4 13 3 12 9 -5 9 18 -6 -20 -20 13 -20 -10 -9 20 15 29 8 3 16 18 8 9 -1 -12 -20 -20 -20 -20 -20 -20 -20 -20 -10 -18 -20 -20
-20 -20 -15 10 20 7 -9 8 9 8 17 -5 -12 -20 -20 0 -17 8 -19 9 -16 25 -1 8 13 9 16 15 13 10 -2 -20 -20 -19 -20 -20 -20 -20 -19 4 -15 -20 -20
-20 -9 2 33 -4 -9 -14 8 15 18 24 5 -20 -19 -20 -20 -3 25 16 22 20 11 20 14 8 11 23 15 9 -15 -20 -11 -5 -5 -10 -20 -20 -20 6 4 -20 -20 -20
-0 -14 5 31 18 1 1 6 -7 -4 -4 11 0 -8 17 2 10 23 30 19 23 22 -1 2 13 16 10 2 -7 0 3 3 -0 -20 -20 -20 -20 -20 -20 -20 -20 -20 -20
4 0 -20 -14 -2 -8 4 1 -9 1 1 11 7 26 21 10 32 17 31 26 29 14 2 25 16 8 -0 1 4 -0 4 -16 -20 -20 -20 -14 -10 -4 -11 -20 -20 -20 -20
-15 -3 2 -0 6 6 16 25 23 24 26 25 28 25 18 13 23 36 34 31 19 16 -20 -18 -17 -8 10 12 8 7 -17 -20 -20 -20 3 9 -15 -20 -20 -20 -20 -20 -20
-20 -1 9 -10 6 11 16 18 30 35 31 21 31 37 34 27 37 35 30 16 13 -4 8 10 8 3 -9 -4 -15 -20 -20 -2 12 10 -20 -20 -20 -20 -20 -20 -20 -20 -20
-20 -18 2 25 11 15 29 18 29 29 35 34 36 35 33 33 37 30 24 15 7 10 15 7 1 7 11 -14 -20 -8 11 10 -15 -20 -20 -20 -20 -20 -20 -20 -20 -20 -20
-11 -4 15 -1 -4 8 20 31 31 33 34 37 31 32 34 32 33 27 24 21 10 12 16 14 13 2 1 5 -1 5 -4 -20 -20 -20 -20 -20 -20 -20 -20 -20 -20 -20 -20
3 3 12 16 17 18 20 19 29 35 35 36 31 29 29 32 27 13 18 12 14 15 9 0 -7 3 0 -9 -20 -20 -20 -20 -20 -20 -20 -20 -20 -20 -20 -20 -20 -20 -20
16 21 22 22 11 14 27 33 34 29 29 29 30 22 27 34 18 -6 2 14 3 -20 -5 19 16 6 -10 -18 -6 -16 -20 -20 -20 -20 -20 -20 -20 -20 -20 -20 -20 -20 -20
2 12 22 18 14 14 21 31 28 30 31 27 25 31 32 20 10 6 -1 -0 11 11 9 6 7 5 3 -19 -20 -20 -20 -20 -20 -20 -20 -20 -20 -20 -20 -20 -20 -20 -20
-8 7 18 21 16 17 24 28 24 24 26 31 34 35 31 19 6 10 9 -3 -2 4 5 6 -2 -20 -20 -20 -20 -20 -20 -20 -20 -20 -20 -20 -20 -20 -20 -20 -20 -20 -20
-7 -12 -5 8 18 25 27 13 22 24 25 25 25 24 9 -4 -10 15 8 2 9 8 -3 -19 -20 -20 -20 -20 -20 -20 -20 -20 -20 -20 -20 -20 -20 -20 -20 -20 -20 -20 -20
-12 -3 -6 5 14 18 21 23 14 23 21 15 3 8 10 9 12 9 -2 -20 -20 -20 -20 -20 -20 -20 -20 -20 -20 -20 -20 -20 -20 -20 -20 -20 -20 -20 -20 -20 -20 -20 -20
-20 -20 -20 -15 3 13 11 21 22 20 21 17 14 14 7 -14 -20 -20 -20 -20 -20 -20 -20 -20 -20 -20 -20 -20 -20 -20 -20 -20 -20 -20 -20 -20 -20 -20 -20 -20 -20 -20 -20
-2 -13 -7 -20 -20 -11 9 14 15 3 7 7 9 7 0 -19 -20 -20 -20 -20 -20 -20 -20 -20 -20 -20 -20 -20 -20 -20 -20 -20 -20 -20 -20 -20 -20 -20 -20 -20 -20 -20 -20

GFSMW_prec_radar_189.txt.gz
Reflectivity
-20 -20 -20 -20 -20 -20 -20 -20 -20 -20 -20 -20 -20 -20 -20 -20 -20 -20 -20 -20 -20 -0 25 30 29 32 23 -11 -13 -18 -20 -20 -20 -20 -20 -20 -20 -20 -20 -20 -20 -20 -20
-20 -20 -20 -20 -20 -20 -20 -20 -20 -20 -20 -20 -20 -20 -20 -20 -20 -20 -20 -20 -20 -0 5 -13 28 31 36 14 1 -9 -14 -20 -20 -20 -20 -20 -20 -20 -20 -20 -20 -20 -20
-20 -20 -20 -20 -20 -20 -20 -20 -20 -20 -20 -20 -20 -20 -20 -20 -20 13 -0 -20 -20 -10 -14 -7 1 27 40 28 -4 10 7 -12 -16 -20 -20 -20 -20 -20 -20 -20 -20 -20 -20
-20 -20 -20 -20 -20 -20 -20 -20 -20 -20 -20 -20 -20 -20 -20 -20 -20 -16 -9 -15 -20 -15 -20 -1 15 12 11 20 24 7 11 -1 -9 -20 -20 -20 -20 -20 -20 -20 -20 -20 -20
-20 -20 -20 -20 -20 -20 -20 -20 -20 -20 -20 -20 -20 -20 -20 -20 -20 -20 -20 -20 -20 -20 15 -11 -13 -20 15 30 34 25 26 15 3 -20 -20 -20 -20 -20 -20 -20 -20 -20 -20
-20 -20 -20 -20 -20 -20 -20 -20 -20 -20 -20 -20 -20 -8 -20 -20 -20 -20 -20 -20 -20 -13 9 5 -6 2 13 21 26 21 24 18 8 -0 -5 -19 -20 -20 -20 -20 -20 -20 -20
-20 -20 -20 -20 -20 -20 -20 -20 -20 -20 -20 -20 -11 7 0 -20 -20 -20 -20 -20 -20 8 -20 1 -12 -20 -5 17 18 17 10 11 7 1 -8 -20 -19 -20 -20 -20 -20 -20 -9
-20 -20 -20 -20 -20 -20 -20 -20 -20 -20 -20 -19 -10 17 18 -20 -20 -20 -20 -20 -20 -20 23 -6 -11 -20 -12 5 24 10 12 11 2 -11 -16 -20 -19 -19 -20 -18 -20 -12 -10
-20 -20 -20 -20 -20 -20 -20 -20 -20 -20 -20 -0 -2 -3 25 -16 -18 -20 -20 -20 -20 -20 -20 8 18 20 -5 2 9 2 13 14 2 -3 -20 -17 -13 -20 -20 -12 -19 -20 -20
-20 -20 -20 -20 -18 -20 -19 -20 -8 -20 -9 13 16 24 4 8 8 -13 -20 -20 -20 19 11 10 20 22 -20 -19 7 11 5 -2 -16 -20 -12 -2 -3 -19 -4 -7 -20 -20 -20
-20 -20 -6 -20 -3 19 -13 -20 -9 -20 -3 -5 22 19 9 13 14 -6 -20 -20 -13 17 16 17 22 28 -18 -16 5 9 8 -7 -3 7 11 4 -5 3 -2 -19 -20 -20 -20
-20 -20 -20 -20 10 -13 -20 3 6 13 17 -0 9 -1 5 7 -6 -6 -20 -20 12 11 24 14 29 17 -8 -11 -6 -1 3 9 11 12 -10 -14 -5 -8 -20 -8 4 -20 -20
-20 -20 -20 -20 -20 5 3 -9 5 -4 5 25 22 15 23 -20 -20 7 -19 -15 7 23 24 28 29 2 -20 -2 8 1 3 7 10 -2 5 2 4 -9 -11 -20 -20 -8 -12
-17 -20 -5 -17 -10 -15 -11 -15 -13 -2 24 17 -20 20 2 -7 -17 4 -18 9 21 20 19 36 28 19 9 10 16 15 12 9 -3 -11 -10 -18 -17 -20 -18 2 -3 -17 -20
-15 -20 -4 -7 -20 -16 -7 25 22 19 14 12 -5 9 24 -4 6 11 0 -4 30 26 26 25 22 3 8 11 11 -4 6 11 13 7 -6 -4 -14 2 -1 -11 -20 -20 -20
-18 -20 -20 -20 -15 -3 24 30 27 35 38 21 30 8 12 11 6 23 3 23 22 22 18 22 15 -6 13 15 14 2 -0 -13 -13 -6 1 10 1 0 -20 -20 -20 -20 -20
-16 -20 -14 8 15 -8 17 10 9 18 32 37 31 35 9 24 22 27 31 17 26 33 22 13 9 13 15 7 8 11 -2 -8 -20 0 6 -19 -19 -20 -20 -20 -20 -20 -20
-20 -1 -3 8 23 18 10 18 20 31 28 39 37 30 32 29 34 29 30 27 22 17 11 -12 -20 10 15 5 4 -11 -4 6 4 2 -11 -20 -20 -20 -20 -20 -20 -20 -20
11 -2 15 3 9 12 26 26 24 29 34 36 34 35 35 34 29 27 28 20 12 12 16 15 16 4 0 -9 5 13 10 -18 -17 -13 -20 -20 -20 -20 -20 -20 -20 -20 -20
18 24 16 21 1 9 20 10 22 22 20 22 26 29 32 32 33 22 21 15 17 15 12 16 11 19 18 19 11 -5 -1 -7 -17 -20 -20 -20 -20 -20 -20 -20 -20 -20 -20
11 17 23 12 19 17 7 11 17 20 24 21 25 25 29 32 28 23 15 7 4 13 11 22 20 13 6 8 13 9 -15 -20 -20 -20 -20 -20 -20 -20 -20 -20 -20 -20 -20
4 15 22 10 18 13 10 9 10 15 24 25 24 28 23 18 18 15 17 16 15 14 13 12 -1 5 20 18 -14 -20 -15 -20 -20 -20 -20 -20 -20 -20 -20 -20 -20 -20 -20
-20 -6 -4 16 16 16 9 22 19 27 24 24 22 22 0 6 14 10 14 13 11 5 -11 3 7 -1 -19 -15 -14 -20 -20 -20 -20 -20 -20 -20 -20 -20 -20 -20 -20 -20 -20
-20 -20 -4 11 19 20 8 18 16 20 20 23 13 5 10 5 -7 -4 -11 -2 7 5 3 0 4 -5 -20 -20 -20 -20 -20 -20 -20 -20 -20 -20 -20 -20 -20 -20 -20 -20 -20
-20 -20 -20 -16 3 -1 13 17 8 4 5 19 21 14 -11 -20 -18 -4 -7 0 -2 -7 -14 -20 -20 -20 -20 -20 -20 -20 -20 -20 -20 -20 -20 -20 -20 -20 -20 -20 -20 -20 -20
-20 -16 -20 3 9 -4 10 18 19 15 -3 -20 -7 10 12 12 13 11 -2 -10 -11 -16 -20 -20 -20 -20 -20 -20 -20 -20 -20 -20 -20 -20 -20 -20 -20 -20 -20 -20 -20 -20 -20

GFSMW_prec_radar_192.txt.gz
Reflectivity
-20 -20 -20 -20 -20 -20 -20 -20 -20 -20 -20 -20 -20 -20 -20 4 -0 -20 -20 -20 -20 -20 -20 -20 2 16 23 18 11 -9 -5 -20 -12 -20 -20 -20 -20 -20 -20 -20 -20 -20 -20
-20 -20 -20 -20 -20 -20 -20 -20 -20 -20 -20 -20 -20 -20 -20 -19 -4 14 -19 -20 -20 -20 -20 -20 -20 9 28 27 29 5 -13 -12 -20 -20 -20 -20 -20 -20 -20 -20 -20 -20 -20
-20 -20 -20 -20 -20 -20 -20 -20 -20 -20 -20 -20 -20 -20 -20 -19 10 12 -16 -19 -20 -20 -20 -20 -20 -15 27 16 24 33 20 11 11 -4 -1 -20 -20 -20 -20 -20 -20 -20 -20
-20 -20 -20 -20 -20 -20 -20 -20 -20 -20 -20 -20 -20 -20 -20 -20 -20 -20 -20 -20 -20 -20 -12 -19 -13 -19 7 -13 8 16 30 20 -11 -8 12 -2 -20 -20 -20 -20 -20 -20 -20
-20 -20 -20 -20 -20 -20 -20 -20 -20 -20 -20 -20 -20 -20 -20 -20 -20 -20 -20 -20 -20 -1 7 -18 -18 2 -20 -4 13 -10 14 14 0 4 4 8 -4 -4 -15 -20 -20 -20 -20
-20 -20 -20 -20 -20 -20 -20 -20 -20 -20 -20 -20 -20 -20 -20 -20 -20 -20 -20 -20 -20 -20 -12 10 -20 -20 -5 5 -13 -20 4 17 22 13 20 17 12 -3 -20 -20 -10 -3 -20
-20 -20 -20 -20 -20 -20 -20 -20 -20 -20 -20 -20 -20 -20 -7 9 -5 -20 -20 -20 -14 -10 -20 -14 -13 15 -18 -18 6 -2 17 19 1 -6 6 21 16 4 -10 -20 -19 -20 -20
-20 -20 -20 -20 -20 -20 -20 -20 -20 -20 -20 -20 -20 -20 6 14 12 -20 -20 -20 -20 -20 -20 -20 -18 -9 -7 -1 26 -4 13 13 2 -10 10 16 14 12 -18 -19 -16 -20 -20
-20 -20 -20 -20 -20 -20 -20 0 -20 -18 -13 -20 -20 -19 13 20 9 -20 -20 -20 -20 -20 -20 -20 -20 -20 -1 -20 -19 11 6 16 2 6 5 8 7 9 5 0 -20 -20 -20
-20 -20 -20 -20 -20 -20 -20 -1 -20 5 -8 -20 -13 -14 5 14 -13 -11 -20 -20 -20 -20 -20 -20 7 -11 -19 -18 11 17 -7 -13 -2 11 16 16 -4 -1 4 -17 -11 1 -20
14 -18 -20 -20 -20 -16 -20 -9 5 0 10 -4 9 13 19 19 36 -15 -20 1 -20 -11 -20 -16 20 -5 8 12 23 18 19 -4 4 15 10 9 -7 -20 -18 -20 -20 -20 -20
8 -20 -20 -20 -6 -20 -19 -19 -1 -5 5 9 25 33 19 26 25 -20 -2 14 17 -11 20 -8 -20 23 18 22 22 -9 16 2 3 7 -4 -6 -8 -20 -20 -20 -20 -18 -4
-6 -20 -20 -20 -17 -11 -20 15 -15 -17 -20 -20 17 28 34 30 7 10 16 6 -18 -20 11 27 5 12 4 -14 25 3 -15 -8 -1 4 -0 -20 -20 -20 -9 -4 -9 -20 -17
-20 -20 -20 -20 -20 -20 -13 14 36 3 -1 -20 -15 15 25 32 22 -20 18 3 -16 -12 23 27 25 27 -8 11 -5 7 -16 -3 -5 -3 -13 1 -3 -18 -17 -5 -20 -20 -5
-5 -20 -20 -20 -20 -20 -6 29 26 27 19 -6 -3 -7 13 10 12 -4 9 -20 -10 30 11 15 27 27 19 8 19 -13 4 -15 -14 -7 -16 -8 -6 -5 1 -15 -5 6 13
-11 -10 13 -10 -18 -4 -9 -5 -20 17 18 21 -5 0 -1 8 15 7 20 -20 26 -13 4 20 27 32 23 22 6 10 -1 -10 1 2 2 13 4 -15 -3 8 12 5 -15
6 3 -1 4 4 -5 2 1 -6 12 24 18 32 18 23 24 3 11 10 14 13 10 11 19 19 2 13 8 14 9 10 8 1 12 14 7 -11 2 11 10 -15 -20 -20
24 22 15 9 17 10 0 -8 7 17 13 28 29 19 14 22 -3 6 -3 14 16 26 17 27 17 15 24 20 8 13 17 15 10 9 -0 5 8 8 -5 -13 -20 -20 -20
-2 25 30 23 12 1 12 23 5 20 25 11 26 30 29 17 12 27 32 28 20 5 6 12 13 24 26 20 19 18 16 7 6 9 12 6 4 -18 -20 -20 -20 -20 -20
-2 12 27 30 25 15 24 10 12 23 18 11 13 22 30 31 30 30 31 28 28 12 4 21 18 14 20 20 12 10 7 11 11 11 5 -2 -20 -20 -20 -20 -20 -20 -20
-3 -1 22 27 18 19 18 -8 -3 7 11 9 22 28 29 27 24 25 26 11 7 4 -9 5 16 13 14 16 18 19 12 13 10 -13 -20 -20 -20 -20 -20 -20 -20 -20 -20
-19 -7 19 19 15 25 -16 -14 3 9 19 13 20 25 25 24 23 -5 2 12 10 13 13 23 22 19 21 18 13 14 2 1 3 -17 -20 -20 -20 -20 -20 -20 -20 -20 -20
-7 -4 22 7 24 19 13 -4 25 6 2 17 13 5 14 12 3 8 10 8 9 10 12 7 9 14 21 14 7 5 -3 -20 -20 -20 -20 -20 -20 -20 -20 -20 -20 -20 -20
-20 -2 -2 18 27 27 26 27 9 10 17 17 22 26 15 2 -15 7 3 10 15 12 13 13 6 -6 2 1 -12 -18 -20 -20 -20 -20 -20 -20 -20 -20 -20 -20 -20 -20 -20
-20 -20 -20 -10 9 12 9 15 24 20 6 22 16 22 -0 7 5 4 9 6 4 1 -8 -6 5 3 -16 -20 -20 -20 -20 -20 -20 -20 -20 -20 -20 -20 -20 -20 -20 -20 -20
-2 -20 -20 -11 -12 -8 15 20 14 16 22 19 -2 -13 -6 -6 -2 -4 3 9 13 10 5 -4 -15 -20 -20 -20 -20 -20 -20 -20 -20 -20 -20 -20 -20 -20 -20 -20 -20 -20 -20